GGSE 3

Satellite information

Favourite Embed

Satellite Type and Status

PAYLOADIN ORBIT

Key statistics

Satellite GGSE 3 at a glance.

Uptime

22194

Days in orbit

Revolutions

≈ 14.0

Per day

Orbit

LEO

Low Earth Orbit

Inclination

70.1

Latest

Satellite identification and parameters

Extended collection of information and parameters for GGSE 3.

Object identification

Identified? True

Debris? False

Object name: GGSE 3

International designator: 1965-016C

Object number (NORAD): 1292

Object ID (CCSDS): 1292

Country: UNITED STATES OF AMERICA (US)

Current information (Y/N): Y

RCS size: MEDIUM

Orbital parameters

Period: 102.746 minutes

Inclination: 70.0778 deg

SMA: 7266.693 km

Apoapsis: 903.673 km

Periapsis: 873.444 km

RAAN: 353.5416 deg

Eccentricy: 0.00207995

Argument of periapsis: 205.9423 deg

Mean anomaly: 154.0645 deg

Mean motion: 14.01514221 rev/day

Mean motion (dot): 0.00000187 rev/day2

B* drag term: 0.00015878248 1/REarth

Two-line elements (TLE)

Creation date: Dec. 12, 2025, 10:14 a.m.

Reference frame: TEME

Reference center: EARTH

Epoch: Dec. 12, 2025, 5:45 a.m. UTC

TLE line 0: 0 GGSE 3

TLE line 1: 1 01292U 65016C 25346.24006443 .00000187 00000-0 15878-3 0 9993

TLE line 2: 2 01292 70.0778 353.5416 0020800 205.9423 154.0645 14.01514221 98370

Live tracking on map

Real-time ground track for satellite GGSE 3.

In-orbit conjunctions

A list of the most updated potential collisions computed for object GGSE 3.

Target Orbit TCA Probability of collision Miss distance Type
FENGYUN 1C DEB SSO 2025-10-19 19:46:41 0.001788959 99.0 (m) DEBRIS
COSMOS 1275 DEB LEO 2025-10-08 01:45:34 0.00252063 71.0 (m) DEBRIS
SL-14 DEB LEO 2025-03-21 03:45:54 0.0002196244 872.0 (m) DEBRIS
OV1-4 R/B SSO 2024-11-05 07:40:48 0.002332664 122.0 (m) ROCKET BODY
METEOR 1-19 LEO 2024-11-01 14:55:15 0.0007875719 344.0 (m) PAYLOAD

Associated space launch

Poppy was the follow-on ELINT system, which succeeded the Grab ELINT satellite system.

GGSE 3 was lifted into orbit during the mission ‘Thor SLV-2 Agena D | Poppy 6A,B,C,D’, on board a Thor SLV-2 Agena D space rocket.

The launch took place on March 9, 1965, 6:29 p.m. from Space Launch Complex 2W.

For more information about the launch, click the button.

Launch to space Thor SLV-2 Agena D | Poppy 6A,B,C,D
Thor SLV-2 Agena D | Poppy 6A,B,C,D

Agency: N/A

Status: Launch Successful

Launch date: March 9, 1965, 6:29 p.m. UTC

Rocket: Thor SLV-2 Agena D

Launch pad: Space Launch Complex 2W

Location: Vandenberg SFB, CA, USA

...

Latest news about this satellite

There are no fresh news available about this satellite. Check back as we update our databases every day.


Newsletter sign-up

Weekly statistics, charts and insights to help you stay on top of the space industry.